[[{"header":{"parameterUnit":"m.s-1","parameterCategory":1,"la1":30.2992,"la2":30.254,"lo1":-89.0895,"lo2":-89.0443,"dy":0.0025,"dx":0.0025,"nx":19,"ny":19,"refTime":"2026-05-24T21:00:00:Z","depth":0,"parameterNumber":2,"parameterNumberName":"U-component_of_WINDS"},"data":[0,0,0,2.4539,2.454,2.4612,2.4612,2.4698,2.4699,0,0,0,0,0,0,0,0,0,0,0,2.4516,2.4517,2.4539,2.4541,2.4612,2.4612,2.4698,2.4699,0,0,0,0,0,0,0,0,0,0,0,2.4516,2.4517,2.4517,2.4541,2.4612,2.4612,2.4698,2.4645,0,0,0,0,0,0,0,0,0,0,2.4577,2.4555,2.4516,2.4517,2.4541,2.4611,2.4612,2.4643,2.4649,2.4664,0,2.4678,0,2.469,2.4704,2.4705,0,0,0,2.4542,2.455,2.4571,2.4517,2.4542,2.4611,2.458,2.4646,2.4653,2.4672,2.468,2.4683,2.4691,2.4705,2.4705,2.4791,2.4791,0,0,2.4538,2.4528,2.4566,2.4575,2.4565,2.4578,2.4582,2.465,2.4658,2.468,2.4685,2.4693,2.4705,2.4706,2.4791,2.4791,0,0,0,2.4526,2.4525,2.4544,2.4571,2.4584,2.458,2.4585,2.4655,2.4662,2.4686,2.4694,2.4706,2.4707,2.479,2.4791,2.4798,0,0,0,2.4523,2.4518,2.4543,2.4537,2.4583,2.4621,2.4588,2.4657,2.4665,2.4693,2.4706,2.4708,2.479,2.479,2.4797,2.4802,0,0,0,2.4512,2.4517,2.4527,2.4537,2.4567,2.462,2.4631,2.4659,2.467,2.4705,2.4708,2.479,2.479,2.4796,2.4801,2.482,0,0,0,2.4497,2.4533,2.4527,2.4569,2.4566,2.4624,2.4631,2.4675,2.4705,2.4706,2.479,2.4791,2.4796,2.48,2.4819,2.4834,2.484,0,0,2.4537,2.4537,2.4563,2.456,2.4616,2.4614,2.4672,2.4709,2.4721,2.4766,2.4769,2.4797,2.4801,2.482,2.4878,2.4882,0,0,0,2.4572,2.4591,2.4608,2.4636,2.4666,2.469,2.472,2.4733,2.4772,2.4743,2.481,2.4813,2.4825,2.4832,2.4836,2.4846,2.4794,2.4794,2.4794,2.4614,2.4628,2.467,2.4691,2.4719,2.4748,2.4771,2.4794,2.48,2.4815,2.4828,2.4862,2.487,2.4873,2.4883,2.4838,2.4839,2.4839,2.4839,2.4672,2.4699,2.4705,2.4748,2.4761,2.4798,2.4826,2.4829,2.4863,2.4853,2.4864,2.4851,2.4878,2.4887,2.4839,2.4839,2.4839,2.4839,2.4839,2.47,2.4715,2.4731,2.4772,2.4802,2.4822,2.4854,2.4865,2.4876,2.4887,2.49,2.49,2.49,2.4893,2.4893,2.4893,2.4893,2.4893,2.4893,2.4722,2.474,2.4766,2.4798,2.4817,2.4843,2.4871,2.4889,2.4912,2.4917,2.4917,2.492,2.4878,2.4867,2.4895,2.4895,2.4894,2.4894,2.4894,2.4774,2.4763,2.4804,2.4822,2.486,2.4888,2.4901,2.4937,2.4954,2.4969,2.4969,2.4937,2.4938,2.4935,2.4925,2.4967,2.4967,2.4967,2.4967,2.4796,2.4798,2.484,2.4869,2.4898,2.4914,2.4956,2.4978,2.4998,2.5009,2.5004,2.4993,2.499,2.4993,2.4989,2.4979,2.5034,2.5034,2.5034,2.4827,2.4832,2.4867,2.4887,2.4917,2.4942,2.4982,2.5013,2.5034,2.5037,2.5017,2.5014,2.4995,2.4989,2.4991,2.4985,2.4968,0,0]},{"header":{"parameterUnit":"m.s-1","parameterCategory":1,"la1":30.2992,"la2":30.254,"lo1":-89.0895,"lo2":-89.0443,"dy":0.0025,"dx":0.0025,"nx":19,"ny":19,"refTime":"2026-05-24T21:00:00:Z","depth":0,"parameterNumber":3,"parameterNumberName":"V-component_of_WINDS"},"data":[0,0,0,4.8027,4.8026,4.7983,4.7983,4.7923,4.7922,0,0,0,0,0,0,0,0,0,0,0,4.804,4.804,4.8027,4.8026,4.7983,4.7983,4.7923,4.7922,0,0,0,0,0,0,0,0,0,0,0,4.804,4.804,4.804,4.8026,4.7983,4.7983,4.7923,4.7956,0,0,0,0,0,0,0,0,0,0,4.7999,4.8012,4.804,4.804,4.8026,4.7983,4.7982,4.7958,4.7954,4.7942,0,4.7933,0,4.7927,4.7918,4.7918,0,0,0,4.8024,4.8016,4.8004,4.804,4.8025,4.7983,4.8002,4.7956,4.7952,4.7937,4.7932,4.793,4.7926,4.7918,4.7918,4.7857,4.7857,0,0,4.8027,4.8032,4.8007,4.8001,4.8011,4.8003,4.8001,4.7953,4.7948,4.7932,4.7929,4.7925,4.7917,4.7917,4.7857,4.7857,0,0,0,4.8035,4.8033,4.8023,4.8004,4.7997,4.8002,4.7999,4.795,4.7946,4.7928,4.7924,4.7917,4.7916,4.7857,4.7857,4.7852,0,0,0,4.8036,4.8038,4.8024,4.8027,4.7998,4.7973,4.7996,4.795,4.7944,4.7925,4.7917,4.7916,4.7858,4.7857,4.7852,4.7847,0,0,0,4.8043,4.8039,4.8033,4.8027,4.8009,4.7974,4.7968,4.7948,4.7942,4.7918,4.7916,4.7858,4.7857,4.7853,4.7848,4.7832,0,0,0,4.805,4.8027,4.8033,4.8006,4.801,4.7973,4.7968,4.7939,4.7918,4.7917,4.7858,4.7857,4.7853,4.7849,4.7833,4.7819,4.7814,0,0,4.8024,4.8024,4.8008,4.8012,4.7976,4.7979,4.7941,4.7915,4.7906,4.7873,4.7871,4.7852,4.7848,4.7833,4.7789,4.7785,0,0,0,4.8001,4.7989,4.7979,4.7961,4.7944,4.7927,4.7908,4.7898,4.7871,4.7892,4.7843,4.784,4.7831,4.7824,4.782,4.7811,4.7855,4.7855,4.7855,4.7968,4.7962,4.7934,4.7923,4.7906,4.7888,4.7872,4.7855,4.7852,4.784,4.7829,4.7804,4.7796,4.7794,4.7784,4.7823,4.7823,4.7823,4.7823,4.7927,4.7909,4.7908,4.7881,4.7874,4.7849,4.7831,4.7829,4.7804,4.7812,4.7803,4.781,4.779,4.7781,4.7823,4.7823,4.7823,4.7823,4.7823,4.7903,4.7893,4.7886,4.786,4.7841,4.7829,4.7806,4.78,4.7793,4.7785,4.7772,4.7772,4.777,4.778,4.778,4.778,4.778,4.778,4.7779,4.7881,4.7872,4.7855,4.7837,4.7825,4.7808,4.7791,4.7778,4.7762,4.7758,4.7758,4.7755,4.7791,4.7799,4.7778,4.7778,4.7778,4.7779,4.7779,4.7838,4.7847,4.7821,4.781,4.7787,4.7768,4.7762,4.7737,4.7725,4.7713,4.7713,4.7742,4.774,4.7742,4.7749,4.7716,4.7716,4.7716,4.7716,4.7816,4.7817,4.7789,4.7771,4.7753,4.7745,4.7713,4.7699,4.7686,4.7678,4.7682,4.7691,4.7694,4.769,4.7694,4.77,4.7655,4.7655,4.7655,4.7789,4.7787,4.7762,4.7753,4.7736,4.772,4.7689,4.7666,4.7653,4.7652,4.7671,4.7673,4.7688,4.7693,4.769,4.7696,4.7706,0,0]}]]